Location: Altleiningen
(49.5078°N, 8.0741°E)
Time: 11:53:21
(UTC+00:00)

USA 186 - Pass Details

Date: 03 March 2021
Orbit: 261 x 430 km, 96.9° (Epoch: 11 April)

Event Time Altitude Azimuth Distance (km) Brightness Sun altitude
Exits shadow 18:28:29 25° 55° (NE) 654 2.3 -12.9°
Drops below altitude 10° 18:30:17 10° 11° (N) 1,181 4.0 -13.2°
Sets 18:32:22 0° 358° (N) 2,047 5.4 -13.5°
